Location: Cheadle
(51.0146°N, 113.5417°W)
Time: 13:01:13
(UTC+00:00)

MOZHAYETS 4 - Visible Passes

Search period start: 08 December 2023 00:00
Search period end: 18 December 2023 00:00
Orbit: 656 x 672 km, 98.3° (Epoch: 08 December)

Date Brightness Start Highest point End Pass type
(mag) Time Alt. Az. Time Alt. Az. Time Alt. Az.
08 Dec 10.5 01:38:10 10° NNW 01:40:09 13° NW 01:42:07 10° WNW visible
09 Dec 9.1 00:30:26 10° N 00:34:43 39° WNW 00:38:59 10° SW visible
10 Dec 9.9 01:01:43 10° N 01:05:19 23° WNW 01:08:54 10° WSW visible
11 Dec 10.4 01:33:29 10° NNW 01:35:47 14° NW 01:38:04 10° W visible
12 Dec 8.9 00:25:57 10° N 00:30:18 42° WNW 00:34:38 10° SW visible
13 Dec 9.8 00:57:12 10° N 01:00:55 25° WNW 01:04:37 10° WSW visible
14 Dec 10.4 01:28:50 10° NNW 01:31:24 15° NW 01:33:57 10° W visible
15 Dec 8.7 00:21:27 10° N 00:25:52 46° WNW 00:30:16 10° SW visible
16 Dec 9.7 00:52:38 10° N 00:56:29 27° WNW 01:00:19 10° WSW visible
17 Dec 10.3 01:24:11 10° NNW 01:26:59 16° NW 01:29:46 10° W visible
